Palm Springs, CA

5:58 AM PDT on August 29, 2016 (GMT -0700)
Palm Springs International

Weather History for KPSP - March, 2013

Change the Weather History Date:

Wednesday, March 20, 2013

  Actual Average Record
Temperature  
Mean Temperature 75 °F 66 °F  
Max Temperature 88 °F 80 °F 98 °F (1997)
Min Temperature 62 °F 53 °F 34 °F (1955)
Degree Days  
Heating Degree Days 0 2  
Month to date heating degree days 22 56  
Since 1 July heating degree days 760 834  
Cooling Degree Days 10 3  
Month to date cooling degree days 126 49  
Year to date cooling degree days 138 76  
Growing Degree Days 25 (Base 50)    
Moisture  
Dew Point 42 °F    
Average Humidity 33    
Maximum Humidity 52    
Minimum Humidity 13    
Precipitation  
Precipitation 0.00 in 0.01 in 0.49 in (1991)
Month to date precipitation 0.04 0.54  
Year to date precipitation 0.97 2.57  
Since 1 July precipitation 2.19  
Snow  
Snow 0.00 in - - ()
Month to date snowfall 0.0  
Year to date snowfall 0.0  
Snow Depth 0.00 in    
Sea Level Pressure  
Sea Level Pressure 29.89 in    
Wind  
Wind Speed 8 mph (WNW)    
Max Wind Speed 28 mph    
Max Gust Speed 38 mph    
Visibility 10 miles    
Events      
T = Trace of Precipitation, MM = Missing Value Source: NWS Daily Summary

Daily Weather History Graph

Daily Weather History Graph

Search for Another Location

Airport or City:

Trip Planner

Search our weather history database for the weather conditions in past years. The results will help you decide how hot, cold, wet, or windy it might be!

Date:

Astronomy

Mar. 20, 2013 Rise Set
Actual Time 6:49 AM PDT 6:57 PM PDT
Civil Twilight 6:24 AM PDT 7:22 PM PDT
Nautical Twilight 5:55 AM PDT 7:51 PM PDT
Astronomical Twilight 5:25 AM PDT 8:21 PM PDT
Moon 12:51 PM PDT (3/20) 2:17 AM PDT (3/20)
Length of Visible Light 12h 58m
Length of Day
12h 08m
First Quarter, 60% of the Moon is Illuminated
Mar 20
First Quarter
Mar 27
Full
Apr 2
Last Quarter
Apr 10
New
Apr 18
First Quarter

Hourly Weather History & Observations

Time (PDT) Temp. Dew Point Humidity Pressure Visibility Wind Dir Wind Speed Gust Speed Precip Events Conditions
12:53 AM 69.1 °F 45.0 °F 42% 29.96 in 10.0 mi Calm Calm - N/A   Clear
1:53 AM 66.0 °F 45.0 °F 47% 29.96 in 10.0 mi WSW 3.5 mph - N/A   Clear
2:53 AM 66.0 °F 46.0 °F 48% 29.94 in 10.0 mi Calm Calm - N/A   Clear
3:53 AM 66.9 °F 44.1 °F 44% 29.92 in 10.0 mi SE 3.5 mph - N/A   Clear
4:53 AM 64.9 °F 46.0 °F 50% 29.91 in 10.0 mi SSW 4.6 mph - N/A   Clear
5:53 AM 66.0 °F 45.0 °F 47% 29.94 in 10.0 mi Calm Calm - N/A   Clear
6:53 AM 64.0 °F 45.0 °F 50% 29.94 in 10.0 mi Calm Calm - N/A   Mostly Cloudy
7:53 AM 64.9 °F 45.0 °F 48% 29.95 in 10.0 mi NW 3.5 mph - N/A   Clear
8:53 AM 68.0 °F 45.0 °F 43% 29.95 in 10.0 mi Calm Calm - N/A   Clear
9:53 AM 73.9 °F 42.1 °F 32% 29.95 in 10.0 mi SW 3.5 mph - N/A   Clear
10:53 AM 79.0 °F 41.0 °F 26% 29.94 in 10.0 mi East 5.8 mph - N/A   Clear
11:53 AM 80.1 °F 44.1 °F 28% 29.93 in 10.0 mi East 5.8 mph - N/A   Clear
12:53 PM 82.9 °F 41.0 °F 23% 29.91 in 10.0 mi ESE 8.1 mph - N/A   Clear
1:53 PM 84.0 °F 37.9 °F 19% 29.88 in 10.0 mi ESE 8.1 mph - N/A   Clear
2:53 PM 86.0 °F 39.9 °F 20% 29.85 in 10.0 mi SW 6.9 mph - N/A   Clear
3:53 PM 84.9 °F 37.0 °F 18% 29.83 in 10.0 mi NW 11.5 mph 24.2 mph N/A   Overcast
4:53 PM 86.0 °F 30.9 °F 14% 29.82 in 10.0 mi NW 13.8 mph 27.6 mph N/A   Mostly Cloudy
5:53 PM 80.1 °F 35.1 °F 20% 29.81 in 10.0 mi NW 26.5 mph 36.8 mph N/A   Clear
6:53 PM 77.0 °F 37.0 °F 24% 29.82 in 10.0 mi NW 20.7 mph 31.1 mph N/A   Clear
7:53 PM 77.0 °F 37.0 °F 24% 29.82 in 10.0 mi NW 18.4 mph 25.3 mph N/A   Clear
8:53 PM 73.0 °F 44.1 °F 35% 29.82 in 10.0 mi NW 15.0 mph 27.6 mph N/A   Clear
9:53 PM 71.1 °F 48.0 °F 44% 29.82 in 9.0 mi NW 18.4 mph - N/A   Clear
11:53 PM 70.0 °F 46.9 °F 44% 29.80 in 10.0 mi Calm Calm - N/A   Clear